Total_Precipitation_Accumulation
0.51 0.29 0.35 0.32 0.26 0.28 0.30 0.35 0.41 0.43 0.38 0.34 0.35 0.40 0.45 0.42 0.41 0.46 0.59 0.73 0.92 1.15 1.41 1.58 1.70 1.84 1.91 1.78 1.70 1.79 1.73 1.82 2.03 2.04 2.04 2.11 2.18 2.11 2.27 2.34 2.28 2.06 2.04
0.55 0.33 0.36 0.33 0.30 0.30 0.30 0.33 0.39 0.39 0.38 0.35 0.33 0.39 0.51 0.47 0.46 0.50 0.65 0.74 0.86 1.06 1.21 1.38 1.58 1.58 1.61 1.57 1.54 1.65 1.71 1.77 2.07 2.37 2.53 2.50 2.50 2.35 2.40 2.58 2.67 2.47 2.23
0.69 0.49 0.38 0.35 0.31 0.31 0.31 0.34 0.36 0.36 0.39 0.38 0.32 0.32 0.38 0.40 0.44 0.55 0.61 0.71 0.85 1.00 1.13 1.25 1.46 1.37 1.31 1.29 1.34 1.45 1.51 1.68 2.09 2.65 3.06 3.04 2.79 2.76 2.60 2.48 2.51 2.30 2.33
0.64 0.62 0.46 0.40 0.35 0.31 0.32 0.36 0.40 0.38 0.38 0.35 0.32 0.31 0.35 0.41 0.46 0.56 0.60 0.69 0.90 1.07 1.16 1.17 1.30 1.36 1.31 1.26 1.21 1.25 1.30 1.55 2.10 2.62 3.15 3.16 3.13 3.36 2.84 2.36 2.24 2.13 2.29
0.56 0.58 0.57 0.47 0.41 0.36 0.35 0.39 0.42 0.42 0.40 0.41 0.41 0.40 0.43 0.47 0.49 0.57 0.69 0.76 0.91 1.06 1.20 1.20 1.20 1.35 1.29 1.19 1.15 1.19 1.30 1.61 2.08 2.40 2.85 3.46 3.83 3.71 3.13 2.57 2.30 2.12 2.19
0.61 0.62 0.61 0.56 0.55 0.52 0.48 0.48 0.48 0.46 0.44 0.47 0.49 0.50 0.52 0.59 0.63 0.67 0.85 1.02 1.09 1.17 1.22 1.20 1.23 1.30 1.16 1.08 1.11 1.21 1.35 1.64 1.82 2.08 2.69 3.45 3.39 3.26 3.07 2.87 2.52 2.28 2.17
0.66 0.82 0.67 0.63 0.64 0.65 0.65 0.61 0.60 0.54 0.54 0.56 0.58 0.57 0.59 0.69 0.78 0.80 0.91 1.11 1.26 1.34 1.31 1.24 1.17 1.10 0.98 1.01 1.12 1.22 1.35 1.56 1.67 2.23 2.82 3.20 3.03 2.88 2.90 2.81 2.58 2.36 2.19
0.70 0.79 0.72 0.67 0.70 0.71 0.77 0.83 0.81 0.73 0.69 0.68 0.70 0.68 0.63 0.62 0.71 0.87 1.00 1.15 1.33 1.38 1.32 1.22 1.17 1.07 1.00 1.10 1.19 1.30 1.37 1.31 1.28 1.90 2.56 2.73 2.43 2.59 2.82 2.65 2.50 2.34 2.18
0.83 0.93 0.92 0.93 0.94 0.99 1.06 1.08 1.04 0.95 0.90 0.83 0.78 0.73 0.69 0.67 0.72 0.85 1.09 1.24 1.39 1.43 1.36 1.24 1.19 1.16 1.15 1.22 1.23 1.23 1.25 1.29 1.27 1.63 2.22 2.67 2.15 2.40 2.81 2.71 2.49 2.37 2.22
1.32 1.39 1.40 1.41 1.35 1.28 1.21 1.21 1.16 1.09 1.04 0.96 0.85 0.79 0.80 0.84 0.92 1.06 1.08 1.23 1.40 1.53 1.44 1.35 1.33 1.26 1.27 1.27 1.24 1.27 1.39 1.29 1.20 1.51 2.07 2.21 2.07 2.54 2.92 2.76 2.54 2.41 2.20
1.98 1.97 1.83 1.78 1.65 1.62 1.51 1.31 1.38 1.31 1.26 1.19 1.10 1.03 1.08 1.20 1.38 1.45 1.30 1.45 1.57 1.66 1.63 1.63 1.62 1.52 1.47 1.38 1.34 1.32 1.36 1.22 1.30 1.61 2.19 2.29 2.48 2.84 3.14 3.03 2.75 2.53 2.34
2.50 2.39 2.12 2.19 2.12 1.94 1.78 1.78 1.78 1.64 1.66 1.65 1.66 1.45 1.56 1.96 2.08 1.76 1.88 1.95 2.07 2.03 1.85 1.85 1.84 1.67 1.51 1.41 1.52 1.52 1.21 1.14 1.31 1.56 1.96 2.32 2.64 3.02 3.21 3.10 2.84 2.63 2.52
2.54 2.36 2.46 2.64 2.48 2.48 2.61 2.61 2.43 2.32 2.35 2.23 2.27 2.12 2.22 2.27 2.17 2.17 2.30 2.36 2.44 2.34 2.24 2.28 2.07 1.77 1.69 1.71 1.66 1.51 1.37 1.35 1.37 1.55 1.88 2.23 2.53 2.99 3.26 3.13 2.88 2.77 2.73
2.84 2.58 2.65 2.67 2.66 2.81 2.91 3.02 3.10 2.94 2.93 2.80 2.74 2.56 2.68 2.78 2.82 2.76 2.92 3.02 3.11 3.05 2.98 2.81 2.53 2.41 2.15 1.99 1.82 1.81 1.68 1.58 1.71 1.90 2.08 2.12 2.30 2.71 3.08 3.18 3.01 2.90 2.86
3.40 3.13 3.00 3.11 2.98 2.96 3.22 3.36 3.22 3.36 3.31 3.44 3.43 3.11 3.16 3.16 3.21 3.42 3.46 3.71 3.66 3.62 3.48 3.22 2.81 2.66 2.52 2.26 2.04 2.01 1.97 1.91 1.96 2.03 2.15 2.19 2.23 2.50 2.95 3.25 3.23 3.15 3.21
3.83 3.67 3.44 3.34 3.34 3.26 3.46 3.72 3.71 3.57 3.66 3.70 3.87 3.69 3.59 3.61 3.71 3.78 3.81 4.02 3.86 3.59 3.56 3.35 3.00 2.83 2.66 2.51 2.19 2.01 2.02 2.24 2.16 2.08 2.20 2.26 2.22 2.31 2.68 3.18 3.48 3.64 3.74
4.04 3.81 3.78 3.58 3.82 3.95 4.19 4.19 4.23 4.27 4.30 4.23 4.17 4.23 4.13 4.17 4.26 4.11 4.25 4.38 4.18 3.86 3.82 3.71 3.54 3.19 2.96 2.88 2.69 2.39 2.25 2.34 2.42 2.50 2.50 2.50 2.52 2.50 2.69 3.01 3.34 3.60 3.81
3.98 3.99 4.12 3.87 4.00 4.29 4.35 4.38 4.58 4.85 4.95 4.79 4.57 4.57 4.49 4.63 4.75 4.80 4.63 4.49 4.34 4.11 4.04 4.16 3.89 3.53 3.39 3.39 3.17 2.79 2.47 2.57 2.68 2.62 2.61 2.65 2.82 2.74 2.78 2.80 2.97 3.25 3.54
3.92 3.92 4.13 4.32 4.21 4.48 4.64 4.72 4.95 5.17 5.34 5.20 4.99 4.85 4.90 4.92 4.87 5.03 4.99 4.88 4.68 4.52 4.42 4.10 4.01 3.84 3.76 3.65 3.19 2.96 2.63 2.52 2.63 2.58 2.61 2.66 2.88 2.98 2.97 2.74 2.87 3.21 3.43
4.00 4.10 4.18 4.54 4.60 4.91 5.07 4.94 5.10 5.24 5.31 5.26 5.21 5.15 5.33 5.43 5.25 5.29 5.15 5.05 4.98 4.91 4.77 4.53 4.42 4.28 3.96 3.78 3.31 3.05 2.78 2.54 2.49 2.49 2.46 2.54 2.59 2.63 2.72 2.75 2.81 2.78 3.06
4.28 4.37 4.35 4.49 4.79 4.98 5.14 5.19 5.52 5.52 5.40 5.59 5.80 5.73 5.89 5.96 5.69 5.63 5.50 5.37 5.15 4.98 4.86 4.71 4.53 4.33 3.96 3.81 3.65 3.33 2.85 2.48 2.43 2.38 2.29 2.37 2.38 2.34 2.46 2.56 2.77 2.76 2.68
4.29 4.45 4.69 4.81 4.87 5.04 5.53 5.96 6.33 6.67 6.63 6.55 6.70 6.71 6.52 6.41 6.30 6.06 6.10 5.80 5.42 5.18 4.89 4.64 4.43 4.13 3.76 3.72 3.74 3.83 3.36 2.92 2.31 1.96 1.99 2.03 2.02 2.04 2.15 2.27 2.43 2.54 2.49
4.01 4.25 4.50 4.84 5.24 5.80 6.48 6.94 7.19 7.55 7.69 7.44 7.15 6.94 6.68 6.50 6.34 6.00 5.81 5.72 5.42 4.90 4.64 4.46 4.21 4.01 3.79 3.65 3.55 3.79 3.57 3.17 2.63 2.23 1.94 1.80 1.83 1.96 2.02 2.14 2.19 2.22 2.19
3.60 3.96 4.38 4.83 5.48 6.40 7.11 7.57 7.95 8.10 8.10 7.92 7.61 7.15 6.70 6.32 5.93 5.60 5.40 5.13 4.85 4.51 4.32 3.99 3.88 3.88 3.83 3.61 3.49 3.26 3.01 2.85 2.88 2.62 2.25 2.00 1.92 1.93 1.89 1.85 1.90 2.00 2.06
3.41 3.77 4.21 4.69 5.45 6.21 6.85 7.47 7.99 8.17 8.12 7.83 7.36 6.80 6.27 5.79 5.32 4.88 4.64 4.38 4.09 3.86 3.65 3.39 3.35 3.43 3.47 3.40 3.34 3.24 3.09 2.96 2.79 2.65 2.52 2.42 2.28 2.09 1.96 1.88 1.85 1.85 1.86
3.05 3.41 3.86 4.32 4.91 5.57 6.05 6.66 7.10 7.32 7.23 6.77 6.19 5.59 5.21 4.95 4.63 4.28 3.96 3.69 3.36 3.14 2.97 2.87 2.78 2.77 2.88 2.90 2.96 2.95 2.96 3.03 2.94 2.90 2.70 2.55 2.48 2.28 2.10 1.96 1.88 1.85 1.79